Regional Weather Roundup
Issued by NWS New Orleans/Baton Rouge, LA

Home | Current Version | Previous Version | Text Only | Print | Product List | Glossary On
Versions: 1 2 3 4 5 6 7 8 9 10 11 12 13 14 15 16 17 18 19 20 21 22 23 24 25 26 27 28 29 30 31 32 33 34 35 36 37 38 39 40 41 42 43 44 45 46 47 48 49 50
715
ASUS44 KLIX 222110
RWRLIX
NEW ORLEANS REGIONAL WEATHER ROUNDUP
NATIONAL WEATHER SERVICE NEW ORLEANS LA
400 PM CDT TUE APR 22 2014

NOTE: "FAIR" INDICATES FEW OR NO CLOUDS BELOW 12,000 FEET WITH NO
      SIGNIFICANT WEATHER AND/OR OBSTRUCTIONS TO VISIBILITY.
      SKY/WX - SKY CONDITION AND SIGNIFICANT WEATHER.
      TMP - AIR TEMPERATURE.     DP    - DEWPOINT TEMPERATURE.
      RH  - RELATIVE HUMIDITY.   PRES  - PRESSURE.
      HI  - HEAT INDEX.          WCI   - WIND CHILL INDEX.

*  THESE STATIONS ARE NOT NWS OR FAA STATIONS AND ARE NOT UNDER
   NWS QUALITY CONTROL.

LAZ038-040-048-061>063-065>067-069-222200-
SOUTHEAST LOUISIANA

CITY           SKY/WX    TMP DP  RH WIND       PRES   REMARKS
N.O. AUDUBON     N/A     79  68  68 MISG        N/A
N.O. INTL ARPT PTSUNNY   76  67  73 SW8       29.90F
N.O. LAKEFRONT MOSUNNY   74  66  76 W10       29.91F
N.O. DOWNTOWN* MOCLDY    75  63  64 W7        29.91F
SLIDELL        PTSUNNY   76  64  66 SW8       29.88F
BATON ROUGE    CLOUDY    77  61  57 N6        29.91F
BOOTHVILLE     CLOUDY    72  66  81 SW14      29.93F
BELLE CHASSE   PTSUNNY   73  66  78 SW6       29.91F
BOGALUSA*        N/A     78  63  60 W7        29.90F
GALLIANO*      CLOUDY    76  65  69 W13       29.92F
NEW ROADS*     MOCLDY    78  60  53 NW9G23    29.92F
GONZALES*        N/A     78  62  57 NW8       29.90F
HAMMOND*       PTSUNNY   82  59  44 NW9       29.91F
HOUMA*         PTSUNNY   75  64  69 W12       29.92F
PORT FOURCHON* CLOUDY    73  66  78 W15       29.94F

$$

MSZ070-080>082-222200-
SOUTHERN MISSISSIPPI

CITY           SKY/WX    TMP DP  RH WIND       PRES   REMARKS
MCCOMB         PTSUNNY   77  61  57 N13       29.91F
GULFPORT       MOSUNNY   78  64  61 VRB5      29.88F
BILOXI         SUNNY     76  66  72 SW12      29.88F
PASCAGOULA     PTSUNNY   75  64  68 SW6       29.88F
STENNIS ARPT*  PTSUNNY   79  63  57 W8        29.89F

$$

COASTAL OBSERVATIONS
LAKE AND NEARSHORE STATIONS

STATION/POSITION TIME  TEMP    WIND        PRES    WAVE
                       AIR SEA DIR/SP/G            HT/PER
                 (UTC) (F)     (DEG/KT/KT) (MB)    (FT/S)
PASCAGOULA       2100   72     250/ 12/ 15 1011.6
WAVELAND YACHT   2100   74 73  220/  5/  9 1011.4
GRAND ISLE       2100   72 72  260/ 13/ 18 1013.9
SOUTHWEST PASS   2100   70 61  280/ 14/ 19 1013.9
NEW CANAL        2100   75 70  250/  7/ 11 1013.1
SHELL BEACH      2100   71 67  250/  7/  9 1012.8

OFFSHORE STATIONS

STATION/POSITION TIME  TEMP    WIND        PRES    WAVE
                       AIR SEA DIR/SP/G            HT/PER
                 (UTC) (F)     (DEG/KT/KT) (MB)    (FT/S)
64 S DAUPHIN ISL 2045   69 71  240/ 12/ 14 1013.5

$$




USA.gov is the U.S. government's official web portal to all federal, state and local government web resources and services.